DLH22C LFRS-EDDF

Flight info

Callsign DLH22C
Flight time 1h 17m
Altitude 34000
Route ANG UL976 OBATO UM163 TSU UN858 OQQAL DCT RANUX/N0444F330 DCT VALEK DCT LUTAX UM163 DIK T856 NIVNU/N0402F230 T847 IMCOM IMCOM1A
Aircraft A319/M-SDE2E3FGIJ1LORWXYZ/HB1

Departure

Time 2026-05-07 18:23
Airport Nantes Atlantique Airport (LFRS)

Arrival

Time 2026-05-07 19:40
Airport Frankfurt Main Airport (EDDF)
Time Latitude Longitude Altitude Speed Heading
2026-05-07 17:44 47.15714 -1.60268 98 ft 0 kts 45°
2026-05-07 17:59 47.15714 -1.60269 98 ft 0 kts 45°
2026-05-07 18:13 47.15696 -1.60296 98 ft 4 kts 48°
2026-05-07 18:13 47.15679 -1.60327 98 ft 4 kts 64°
2026-05-07 18:13 47.15676 -1.60360 99 ft 3 kts 132°
2026-05-07 18:14 47.15694 -1.60387 99 ft 4 kts 136°
2026-05-07 18:14 47.15714 -1.60414 99 ft 4 kts 141°
2026-05-07 18:14 47.15735 -1.60437 98 ft 4 kts 150°
2026-05-07 18:14 47.15760 -1.60452 98 ft 3 kts 180°
2026-05-07 18:15 47.15784 -1.60449 98 ft 4 kts 199°
2026-05-07 18:15 47.15804 -1.60435 98 ft 2 kts 210°
2026-05-07 18:15 47.15816 -1.60426 97 ft 0 kts 210°
2026-05-07 18:17 47.15815 -1.60428 97 ft 0 kts 209°
2026-05-07 18:17 47.15809 -1.60432 97 ft 4 kts 209°
2026-05-07 18:17 47.15754 -1.60476 98 ft 11 kts 207°
2026-05-07 18:18 47.15686 -1.60526 99 ft 11 kts 207°
2026-05-07 18:18 47.15613 -1.60581 101 ft 12 kts 207°
2026-05-07 18:18 47.15530 -1.60644 99 ft 16 kts 207°
2026-05-07 18:18 47.15408 -1.60737 96 ft 21 kts 207°
2026-05-07 18:19 47.15279 -1.60835 98 ft 21 kts 207°
2026-05-07 18:19 47.15148 -1.60935 98 ft 21 kts 207°
2026-05-07 18:19 47.15010 -1.61040 96 ft 23 kts 207°
2026-05-07 18:19 47.14867 -1.61151 97 ft 23 kts 208°
2026-05-07 18:20 47.14717 -1.61265 96 ft 24 kts 207°
2026-05-07 18:20 47.14563 -1.61381 92 ft 26 kts 207°
2026-05-07 18:20 47.14395 -1.61507 88 ft 28 kts 207°
2026-05-07 18:20 47.14229 -1.61635 86 ft 16 kts 207°
2026-05-07 18:21 47.14180 -1.61680 83 ft 8 kts 230°
2026-05-07 18:21 47.14149 -1.61768 81 ft 11 kts 249°
2026-05-07 18:21 47.14142 -1.61873 80 ft 10 kts 284°
2026-05-07 18:21 47.14198 -1.61923 81 ft 10 kts 17°
2026-05-07 18:22 47.14228 -1.61902 83 ft 0 kts 27°
2026-05-07 18:22 47.14231 -1.61900 82 ft 1 kts 27°
2026-05-07 18:22 47.14241 -1.61892 81 ft 2 kts 26°
2026-05-07 18:22 47.14329 -1.61826 86 ft 43 kts 27°
2026-05-07 18:23 47.14841 -1.61438 99 ft 119 kts 27°
2026-05-07 18:23 47.15739 -1.60761 244 ft 161 kts 26°
2026-05-07 18:23 47.16653 -1.59790 888 ft 165 kts 55°
2026-05-07 18:23 47.16896 -1.58197 1663 ft 165 kts 97°
2026-05-07 18:24 47.16352 -1.56604 2104 ft 187 kts 128°
2026-05-07 18:24 47.15645 -1.54924 2719 ft 198 kts 110°
2026-05-07 18:24 47.15357 -1.52865 3295 ft 213 kts 98°
2026-05-07 18:24 47.15234 -1.50580 3786 ft 238 kts 95°
2026-05-07 18:25 47.15113 -1.48075 4474 ft 256 kts 95°
2026-05-07 18:25 47.14960 -1.45434 5458 ft 262 kts 96°
2026-05-07 18:25 47.14783 -1.42735 6465 ft 268 kts 97°
2026-05-07 18:25 47.14586 -1.39982 7418 ft 273 kts 97°
2026-05-07 18:26 47.14371 -1.37164 8384 ft 279 kts 98°
2026-05-07 18:26 47.14278 -1.34282 9327 ft 287 kts 86°
2026-05-07 18:26 47.14736 -1.31425 10230 ft 295 kts 69°
2026-05-07 18:26 47.15812 -1.28725 10662 ft 320 kts 50°
2026-05-07 18:27 47.17529 -1.26482 11027 ft 342 kts 37°
2026-05-07 18:27 47.19468 -1.24324 11690 ft 353 kts 37°
2026-05-07 18:27 47.21440 -1.22115 12491 ft 359 kts 37°
2026-05-07 18:27 47.22760 -1.20627 13038 ft 363 kts 37°
2026-05-07 18:28 47.25460 -1.17558 14077 ft 369 kts 37°
2026-05-07 18:28 47.27478 -1.15252 14797 ft 374 kts 38°
2026-05-07 18:28 47.29543 -1.12887 15529 ft 378 kts 38°
2026-05-07 18:28 47.31640 -1.10492 16253 ft 382 kts 38°
2026-05-07 18:29 47.33759 -1.08071 16980 ft 387 kts 38°
2026-05-07 18:29 47.35902 -1.05626 17694 ft 391 kts 38°
2026-05-07 18:29 47.38046 -1.03178 18366 ft 396 kts 38°
2026-05-07 18:29 47.40244 -1.00667 18995 ft 400 kts 38°
2026-05-07 18:30 47.42459 -0.98130 19643 ft 404 kts 38°
2026-05-07 18:30 47.44685 -0.95575 20274 ft 408 kts 38°
2026-05-07 18:30 47.46941 -0.92972 20914 ft 411 kts 38°
2026-05-07 18:30 47.49204 -0.90350 21544 ft 415 kts 38°
2026-05-07 18:31 47.51469 -0.87733 22159 ft 419 kts 38°
2026-05-07 18:31 47.53785 -0.85065 22758 ft 422 kts 38°
2026-05-07 18:31 47.56128 -0.82391 23352 ft 426 kts 38°
2026-05-07 18:31 47.58497 -0.79726 23867 ft 429 kts 37°
2026-05-07 18:32 47.60893 -0.77050 24344 ft 432 kts 37°
2026-05-07 18:32 47.63270 -0.74400 24809 ft 435 kts 37°
2026-05-07 18:32 47.65699 -0.71690 25284 ft 438 kts 37°
2026-05-07 18:32 47.68145 -0.68945 25741 ft 441 kts 37°
2026-05-07 18:33 47.70594 -0.66184 26211 ft 444 kts 37°
2026-05-07 18:33 47.73059 -0.63398 26675 ft 447 kts 37°
2026-05-07 18:33 47.75545 -0.60587 27122 ft 450 kts 37°
2026-05-07 18:33 47.78046 -0.57753 27571 ft 453 kts 38°
2026-05-07 18:34 47.79708 -0.55865 27864 ft 455 kts 38°
2026-05-07 18:34 47.82228 -0.53002 28302 ft 457 kts 38°
2026-05-07 18:34 47.85603 -0.49164 28861 ft 461 kts 37°
2026-05-07 18:34 47.87299 -0.47230 29121 ft 463 kts 37°
2026-05-07 18:35 47.89865 -0.44297 29521 ft 466 kts 38°
2026-05-07 18:35 47.92443 -0.41347 29910 ft 469 kts 38°
2026-05-07 18:35 47.95039 -0.38372 30264 ft 472 kts 37°
2026-05-07 18:35 47.97664 -0.35366 30584 ft 474 kts 37°
2026-05-07 18:36 48.00294 -0.32358 30887 ft 477 kts 37°
2026-05-07 18:36 48.02931 -0.29312 31272 ft 478 kts 39°
2026-05-07 18:36 48.05302 -0.25953 31689 ft 477 kts 48°
2026-05-07 18:36 48.07353 -0.22038 32115 ft 477 kts 57°
2026-05-07 18:37 48.08992 -0.17741 32526 ft 476 kts 65°
2026-05-07 18:37 48.10387 -0.13294 32951 ft 476 kts 66°
2026-05-07 18:37 48.11814 -0.08743 33365 ft 476 kts 66°
2026-05-07 18:37 48.13207 -0.04302 33780 ft 477 kts 66°
2026-05-07 18:38 48.14620 0.00207 33975 ft 477 kts 66°
2026-05-07 18:38 48.17418 0.09166 34001 ft 472 kts 66°
2026-05-07 18:39 48.20188 0.18080 33999 ft 471 kts 66°
2026-05-07 18:39 48.22950 0.26996 34004 ft 471 kts 66°
2026-05-07 18:40 48.25697 0.35890 34009 ft 471 kts 66°
2026-05-07 18:40 48.28447 0.44826 34009 ft 471 kts 66°
2026-05-07 18:41 48.31189 0.53765 34017 ft 471 kts 66°
2026-05-07 18:41 48.33889 0.62627 34010 ft 471 kts 66°
2026-05-07 18:42 48.36624 0.71628 34008 ft 470 kts 66°
2026-05-07 18:42 48.39346 0.80594 34014 ft 470 kts 66°
2026-05-07 18:43 48.42060 0.89566 34010 ft 470 kts 66°
2026-05-07 18:43 48.44743 0.98494 34014 ft 470 kts 66°
2026-05-07 18:44 48.47436 1.07479 34011 ft 469 kts 66°
2026-05-07 18:44 48.50121 1.16453 34017 ft 469 kts 66°
2026-05-07 18:45 48.52784 1.25393 34015 ft 469 kts 66°
2026-05-07 18:45 48.55447 1.34376 34021 ft 468 kts 66°
2026-05-07 18:46 48.58102 1.43353 34024 ft 468 kts 66°
2026-05-07 18:46 48.60747 1.52322 34024 ft 467 kts 66°
2026-05-07 18:47 48.63364 1.61236 34028 ft 467 kts 66°
2026-05-07 18:47 48.65889 1.70284 34027 ft 466 kts 69°
2026-05-07 18:48 48.68092 1.79512 34025 ft 466 kts 71°
2026-05-07 18:48 48.70222 1.88769 34024 ft 466 kts 71°
2026-05-07 18:49 48.72417 1.98019 34020 ft 466 kts 70°
2026-05-07 18:49 48.74636 2.07194 34024 ft 466 kts 70°
2026-05-07 18:50 48.76693 2.16508 34019 ft 466 kts 74°
2026-05-07 18:50 48.78360 2.25987 34017 ft 466 kts 76°
2026-05-07 18:51 48.79941 2.35521 34020 ft 466 kts 76°
2026-05-07 18:51 48.81603 2.45044 34025 ft 466 kts 75°
2026-05-07 18:52 48.83311 2.54543 34025 ft 466 kts 75°
2026-05-07 18:52 48.84995 2.63994 34050 ft 466 kts 75°
2026-05-07 18:53 48.86671 2.73532 34049 ft 466 kts 75°
2026-05-07 18:53 48.88336 2.83063 34049 ft 466 kts 75°
2026-05-07 18:54 48.89986 2.92548 34051 ft 466 kts 75°
2026-05-07 18:54 48.91637 3.02093 34054 ft 466 kts 76°
2026-05-07 18:55 48.93276 3.11633 34064 ft 466 kts 76°
2026-05-07 18:55 48.94910 3.21186 34067 ft 466 kts 76°
2026-05-07 18:56 48.96525 3.30669 34063 ft 465 kts 76°
2026-05-07 18:56 48.98143 3.40208 34066 ft 465 kts 76°
2026-05-07 18:57 48.99752 3.49776 34066 ft 465 kts 76°
2026-05-07 18:57 49.01336 3.59275 34063 ft 465 kts 76°
2026-05-07 18:58 49.02931 3.68827 34063 ft 465 kts 76°
2026-05-07 18:58 49.04512 3.78390 34062 ft 465 kts 76°
2026-05-07 18:59 49.06082 3.87963 34056 ft 465 kts 76°
2026-05-07 18:59 49.07661 3.97552 34056 ft 466 kts 76°
2026-05-07 19:00 49.09224 4.07108 34048 ft 466 kts 76°
2026-05-07 19:00 49.10772 4.16733 34052 ft 466 kts 76°
2026-05-07 19:01 49.12306 4.26296 34053 ft 465 kts 76°
2026-05-07 19:01 49.13894 4.35898 34055 ft 465 kts 72°
2026-05-07 19:02 49.16303 4.45057 34056 ft 465 kts 67°
2026-05-07 19:02 49.18785 4.54188 34056 ft 464 kts 67°
2026-05-07 19:03 49.21224 4.63217 33257 ft 460 kts 67°
2026-05-07 19:03 49.22443 4.67761 32457 ft 460 kts 67°
2026-05-07 19:03 49.23658 4.72294 32138 ft 461 kts 67°
2026-05-07 19:03 49.24873 4.76841 32030 ft 461 kts 67°
2026-05-07 19:04 49.26090 4.81390 32065 ft 462 kts 67°
2026-05-07 19:04 49.28516 4.90460 32064 ft 463 kts 67°
2026-05-07 19:05 49.30946 4.99606 32059 ft 463 kts 67°
2026-05-07 19:05 49.33363 5.08747 32059 ft 463 kts 67°
2026-05-07 19:06 49.35784 5.17900 32060 ft 463 kts 67°
2026-05-07 19:06 49.39382 5.31608 32059 ft 462 kts 68°
2026-05-07 19:07 49.41774 5.40800 32061 ft 462 kts 68°
2026-05-07 19:07 49.44166 5.49988 32057 ft 462 kts 68°
2026-05-07 19:08 49.46772 5.58985 32056 ft 462 kts 63°
2026-05-07 19:08 49.49689 5.67783 32068 ft 461 kts 62°
2026-05-07 19:09 49.52583 5.76521 32087 ft 459 kts 62°
2026-05-07 19:09 49.55397 5.85347 31981 ft 458 kts 63°
2026-05-07 19:10 49.56782 5.89757 31566 ft 454 kts 63°
2026-05-07 19:10 49.58148 5.94126 31157 ft 451 kts 63°
2026-05-07 19:10 49.59510 5.98487 30725 ft 451 kts 63°
2026-05-07 19:10 49.60854 6.02789 30123 ft 451 kts 63°
2026-05-07 19:11 49.62216 6.07139 29312 ft 451 kts 63°
2026-05-07 19:11 49.63584 6.11511 28532 ft 452 kts 63°
2026-05-07 19:11 49.64950 6.15866 27766 ft 449 kts 63°
2026-05-07 19:11 49.66309 6.20204 27019 ft 446 kts 63°
2026-05-07 19:12 49.67660 6.24534 26299 ft 448 kts 64°
2026-05-07 19:12 49.69007 6.28869 25647 ft 445 kts 64°
2026-05-07 19:12 49.70327 6.33118 25191 ft 442 kts 64°
2026-05-07 19:12 49.71655 6.37412 25023 ft 442 kts 64°
2026-05-07 19:13 49.72984 6.41720 25066 ft 442 kts 64°
2026-05-07 19:13 49.74309 6.46018 25058 ft 443 kts 64°
2026-05-07 19:13 49.75632 6.50313 25063 ft 443 kts 64°
2026-05-07 19:13 49.76958 6.54617 25054 ft 443 kts 64°
2026-05-07 19:14 49.78267 6.58875 25066 ft 443 kts 64°
2026-05-07 19:14 49.79593 6.63192 24996 ft 443 kts 64°
2026-05-07 19:14 49.80915 6.67501 24491 ft 438 kts 64°
2026-05-07 19:14 49.82206 6.71718 23993 ft 430 kts 64°
2026-05-07 19:15 49.83475 6.75868 23476 ft 423 kts 64°
2026-05-07 19:15 49.84723 6.79966 22890 ft 418 kts 64°
2026-05-07 19:15 49.85955 6.84023 22320 ft 414 kts 64°
2026-05-07 19:15 49.87173 6.88051 21760 ft 411 kts 64°
2026-05-07 19:16 49.88367 6.92000 21233 ft 408 kts 64°
2026-05-07 19:16 49.89562 6.95966 20746 ft 404 kts 64°
2026-05-07 19:16 49.90750 6.99902 20284 ft 400 kts 64°
2026-05-07 19:16 49.91925 7.03791 19812 ft 396 kts 64°
2026-05-07 19:17 49.93088 7.07644 19340 ft 392 kts 64°
2026-05-07 19:17 49.94242 7.11474 18890 ft 388 kts 64°
2026-05-07 19:17 49.95386 7.15270 18437 ft 387 kts 64°
2026-05-07 19:17 49.96521 7.19046 17916 ft 384 kts 64°
2026-05-07 19:18 49.97646 7.22797 17349 ft 382 kts 64°
2026-05-07 19:18 49.98746 7.26487 16800 ft 379 kts 65°
2026-05-07 19:18 49.99849 7.30196 16279 ft 376 kts 65°
2026-05-07 19:18 50.00943 7.33880 15764 ft 373 kts 65°
2026-05-07 19:19 50.01950 7.37270 15299 ft 370 kts 65°
2026-05-07 19:19 50.03013 7.40845 14799 ft 367 kts 65°
2026-05-07 19:19 50.04082 7.44436 14317 ft 364 kts 65°
2026-05-07 19:19 50.05142 7.48013 13828 ft 362 kts 65°
2026-05-07 19:20 50.06191 7.51558 13290 ft 359 kts 65°
2026-05-07 19:20 50.06878 7.53890 12937 ft 357 kts 65°
2026-05-07 19:20 50.07911 7.57403 12418 ft 354 kts 65°
2026-05-07 19:20 50.09262 7.62003 11738 ft 349 kts 65°
2026-05-07 19:21 50.10033 7.65561 11242 ft 345 kts 77°
2026-05-07 19:21 50.10272 7.68039 11101 ft 338 kts 85°
2026-05-07 19:21 50.10249 7.71667 11064 ft 335 kts 96°
2026-05-07 19:21 50.09797 7.75228 11077 ft 334 kts 107°
2026-05-07 19:22 50.09128 7.78694 11071 ft 334 kts 107°
2026-05-07 19:22 50.08560 7.82153 11067 ft 335 kts 99°
2026-05-07 19:22 50.08425 7.85780 11070 ft 335 kts 87°
2026-05-07 19:22 50.08752 7.89366 11074 ft 334 kts 76°
2026-05-07 19:23 50.09471 7.92683 11065 ft 318 kts 68°
2026-05-07 19:23 50.10244 7.95813 11068 ft 301 kts 68°
2026-05-07 19:23 50.10973 7.98783 11070 ft 286 kts 68°
2026-05-07 19:23 50.11665 8.01614 11071 ft 272 kts 69°
2026-05-07 19:24 50.12334 8.04358 10860 ft 269 kts 69°
2026-05-07 19:24 50.12990 8.07055 10685 ft 264 kts 69°
2026-05-07 19:24 50.13637 8.09724 10512 ft 262 kts 69°
2026-05-07 19:24 50.14274 8.12350 10346 ft 261 kts 69°
2026-05-07 19:25 50.14912 8.15000 10175 ft 261 kts 70°
2026-05-07 19:25 50.15110 8.17787 10000 ft 260 kts 99°
2026-05-07 19:25 50.14421 8.20352 9734 ft 258 kts 129°
2026-05-07 19:25 50.13018 8.22025 9455 ft 254 kts 160°
2026-05-07 19:26 50.11293 8.22360 9196 ft 250 kts 191°
2026-05-07 19:26 50.09745 8.21312 8927 ft 246 kts 221°
2026-05-07 19:26 50.08757 8.19179 8673 ft 244 kts 249°
2026-05-07 19:26 50.08188 8.16686 8412 ft 244 kts 253°
2026-05-07 19:27 50.07676 8.14182 8154 ft 243 kts 253°
2026-05-07 19:27 50.07174 8.11677 7901 ft 241 kts 253°
2026-05-07 19:27 50.06679 8.09182 7642 ft 240 kts 253°
2026-05-07 19:27 50.06189 8.06698 7393 ft 239 kts 253°
2026-05-07 19:28 50.05627 8.04267 7150 ft 238 kts 246°
2026-05-07 19:28 50.04894 8.01946 7068 ft 238 kts 244°
2026-05-07 19:28 50.04149 7.99677 7077 ft 239 kts 244°
2026-05-07 19:28 50.03387 7.97366 6903 ft 239 kts 244°
2026-05-07 19:29 50.02631 7.95066 6655 ft 238 kts 244°
2026-05-07 19:29 50.01853 7.92806 6414 ft 237 kts 238°
2026-05-07 19:29 50.00895 7.90716 6148 ft 236 kts 234°
2026-05-07 19:29 49.99924 7.88711 5881 ft 232 kts 233°
2026-05-07 19:30 49.98720 7.87094 5624 ft 230 kts 205°
2026-05-07 19:30 49.97158 7.86582 5368 ft 229 kts 182°
2026-05-07 19:30 49.95626 7.87046 5114 ft 228 kts 153°
2026-05-07 19:30 49.94474 7.88681 4990 ft 226 kts 120°
2026-05-07 19:31 49.94013 7.90967 4992 ft 219 kts 94°
2026-05-07 19:31 49.93913 7.93314 4996 ft 216 kts 92°
2026-05-07 19:31 49.93806 7.95636 4999 ft 216 kts 93°
2026-05-07 19:31 49.93697 7.97957 4996 ft 213 kts 92°
2026-05-07 19:32 49.93593 8.00183 4992 ft 200 kts 92°
2026-05-07 19:32 49.93496 8.02298 5034 ft 195 kts 92°
2026-05-07 19:32 49.93402 8.04367 4999 ft 194 kts 92°
2026-05-07 19:32 49.93372 8.06453 4990 ft 193 kts 80°
2026-05-07 19:33 49.93741 8.08454 5001 ft 192 kts 69°
2026-05-07 19:33 49.94197 8.10403 4998 ft 192 kts 68°
2026-05-07 19:33 49.94669 8.12355 4998 ft 192 kts 68°
2026-05-07 19:33 49.95142 8.14297 4996 ft 192 kts 68°
2026-05-07 19:34 49.95616 8.16242 4999 ft 192 kts 68°
2026-05-07 19:34 49.96084 8.18167 4850 ft 192 kts 68°
2026-05-07 19:34 49.96555 8.20101 4611 ft 190 kts 68°
2026-05-07 19:34 49.97016 8.22000 4338 ft 185 kts 68°
2026-05-07 19:35 49.97462 8.23838 4067 ft 179 kts 68°
2026-05-07 19:35 49.97895 8.25621 3822 ft 174 kts 68°
2026-05-07 19:35 49.98315 8.27355 3581 ft 169 kts 68°
2026-05-07 19:35 49.98726 8.29051 3334 ft 166 kts 68°
2026-05-07 19:36 49.99127 8.30707 3094 ft 162 kts 68°
2026-05-07 19:36 49.99515 8.32310 2864 ft 159 kts 68°
2026-05-07 19:36 49.99897 8.33889 2631 ft 153 kts 68°
2026-05-07 19:36 50.00262 8.35401 2421 ft 145 kts 68°
2026-05-07 19:37 50.00609 8.36839 2211 ft 138 kts 68°
2026-05-07 19:37 50.00940 8.38213 2013 ft 134 kts 69°
2026-05-07 19:37 50.01264 8.39554 1821 ft 131 kts 69°
2026-05-07 19:37 50.01583 8.40880 1632 ft 130 kts 69°
2026-05-07 19:38 50.01902 8.42202 1436 ft 131 kts 69°
2026-05-07 19:38 50.02221 8.43525 1245 ft 131 kts 69°
2026-05-07 19:38 50.02541 8.44848 1038 ft 130 kts 69°
2026-05-07 19:38 50.02849 8.46165 822 ft 130 kts 69°
2026-05-07 19:39 50.03158 8.47476 630 ft 128 kts 69°
2026-05-07 19:39 50.03472 8.48773 466 ft 127 kts 69°
2026-05-07 19:39 50.03783 8.50060 353 ft 127 kts 69°
2026-05-07 19:39 50.04067 8.51223 330 ft 99 kts 69°
2026-05-07 19:40 50.04270 8.52058 337 ft 74 kts 69°
2026-05-07 19:40 50.04395 8.52706 352 ft 54 kts 87°
2026-05-07 19:40 50.04350 8.53202 360 ft 36 kts 98°
2026-05-07 19:40 50.04395 8.53528 375 ft 28 kts 81°
2026-05-07 19:41 50.04418 8.53822 375 ft 27 kts 83°
2026-05-07 19:41 50.04435 8.54120 375 ft 28 kts 85°
2026-05-07 19:41 50.04453 8.54396 372 ft 23 kts 86°
2026-05-07 19:41 50.04408 8.54650 364 ft 27 kts 128°
2026-05-07 19:42 50.04240 8.54816 355 ft 31 kts 159°
2026-05-07 19:42 50.04073 8.54910 356 ft 14 kts 160°
2026-05-07 19:42 50.04018 8.55003 355 ft 12 kts 86°
2026-05-07 19:42 50.04047 8.55134 356 ft 14 kts 69°
2026-05-07 19:43 50.04081 8.55278 353 ft 15 kts 69°
2026-05-07 19:43 50.04122 8.55447 352 ft 18 kts 70°
2026-05-07 19:43 50.04166 8.55636 353 ft 19 kts 69°
2026-05-07 19:43 50.04213 8.55830 360 ft 19 kts 69°
2026-05-07 19:44 50.04257 8.56013 361 ft 16 kts 69°
2026-05-07 19:44 50.04337 8.56057 359 ft 13 kts 341°
2026-05-07 19:44 50.04426 8.56038 358 ft 13 kts 26°
2026-05-07 19:44 50.04464 8.56164 359 ft 14 kts 70°
2026-05-07 19:45 50.04498 8.56308 356 ft 15 kts 69°
2026-05-07 19:45 50.04538 8.56427 358 ft 12 kts 34°
2026-05-07 19:45 50.04550 8.56521 356 ft 6 kts 102°
2026-05-07 19:45 50.04540 8.56561 360 ft 1 kts 115°
2026-05-07 19:46 50.04535 8.56579 359 ft 0 kts 115°
2026-05-07 19:46 50.04533 8.56587 358 ft 2 kts 114°
2026-05-07 19:46 50.04532 8.56589 358 ft 0 kts 114°